| time (UTC) | temp F | wind direction | speed MPH | gust MPH | rain 1hr in | rain 24hr in | rain mn in | humidity % | barometer mb |
| 20260904205636 | 70 | 49 | 5.0 | 8.0 | 0.00 | 0.00 | 0.00 | 1 | 1015.3 |
| 20260904204625 | 69 | 326 | 4.0 | 6.0 | 0.00 | 0.00 | 0.00 | 1 | 1015.4 |
| 20260904203620 | 70 | 20 | 6.0 | 9.0 | 0.00 | 0.00 | 0.00 | 1 | 1015.4 |
| 20260904202616 | 69 | 44 | 3.0 | 5.0 | 0.00 | 0.00 | 0.00 | 1 | 1015.3 |
| 20260904201633 | 69 | 8 | 6.0 | 7.0 | 0.00 | 0.00 | 0.00 | 1 | 1015.4 |
| 20260904200629 | 69 | 59 | 5.0 | 6.0 | 0.00 | 0.00 | 0.00 | 1 | 1015.5 |
| 20260904195645 | 68 | 95 | 4.0 | 5.0 | 0.00 | 0.00 | 0.00 | 1 | 1015.5 |
| 20260904194622 | 68 | 179 | 3.0 | 3.0 | 0.00 | 0.00 | 0.00 | 1 | 1015.6 |
| 20260904193638 | 67 | 360 | 2.0 | 5.0 | 0.00 | 0.00 | 0.00 | 1 | 1015.6 |
| 20260904192634 | 68 | 67 | 4.0 | 6.0 | 0.00 | 0.00 | 0.00 | 1 | 1015.7 |
| 20260904191630 | 67 | 38 | 4.0 | 5.0 | 0.00 | 0.00 | 0.00 | 1 | 1015.8 |
| 20260904190726 | 66 | 50 | 4.0 | 6.0 | 0.00 | 0.00 | 0.00 | 1 | 1015.8 |
| 20260904185622 | 65 | 24 | 3.0 | 5.0 | 0.00 | 0.00 | 0.00 | 1 | 1016.1 |
| 20260904184619 | 64 | 156 | 2.0 | 3.0 | 0.00 | 0.00 | 0.00 | 1 | 1016.1 |
| 20260904183635 | 64 | 185 | 4.0 | 5.0 | 0.00 | 0.00 | 0.00 | 1 | 1016.3 |
| 20260904182631 | 65 | 158 | 4.0 | 7.0 | 0.00 | 0.00 | 0.00 | 1 | 1016.1 |
| 20260904181647 | 65 | 190 | 4.0 | 4.0 | 0.00 | 0.00 | 0.00 | 1 | 1016.0 |
| 20260904180624 | 63 | 37 | 1.0 | 3.0 | 0.00 | 0.00 | 0.00 | 1 | 1015.8 |
| 20260904175620 | 62 | 314 | 2.0 | 3.0 | 0.00 | 0.00 | 0.00 | 1 | 1015.9 |
| 20260904174621 | 63 | 58 | 2.0 | 4.0 | 0.00 | 0.00 | 0.00 | 1 | 1015.8 |
| 20260904173633 | 62 | 68 | 2.0 | 3.0 | 0.00 | 0.00 | 0.00 | 1 | 1015.8 |
| 20260904172628 | 63 | 53 | 5.0 | 6.0 | 0.00 | 0.00 | 0.00 | 1 | 1015.6 |
| 20260904171625 | 62 | 331 | 1.0 | 3.0 | 0.00 | 0.00 | 0.00 | 1 | 1015.6 |
| 20260904170621 | 62 | 12 | 1.0 | 3.0 | 0.00 | 0.00 | 0.00 | 1 | 1015.7 |
| 20260904165618 | 60 | 348 | 3.0 | 4.0 | 0.00 | 0.00 | 0.00 | 1 | 1015.7 |
| 20260904164634 | 59 | 1 | 2.0 | 3.0 | 0.00 | 0.00 | 0.00 | 1 | 1015.6 |
| 20260904163629 | 60 | 336 | 3.0 | 4.0 | 0.00 | 0.00 | 0.00 | 1 | 1015.6 |
| 20260904162645 | 58 | 43 | 2.0 | 2.0 | 0.00 | 0.00 | 0.00 | 1 | 1015.6 |
| 20260904161622 | 58 | 9 | 2.0 | 4.0 | 0.00 | 0.00 | 0.00 | 1 | 1015.6 |
| 20260904160618 | 58 | 337 | 2.0 | 4.0 | 0.00 | 0.00 | 0.00 | 1 | 1015.4 |
| 20260904155636 | 57 | 1 | 3.0 | 4.0 | 0.00 | 0.00 | 0.00 | 1 | 1015.4 |
| 20260904154630 | 57 | 12 | 4.0 | 4.0 | 0.00 | 0.00 | 0.00 | 1 | 1015.3 |
| 20260904153626 | 56 | 7 | 2.0 | 3.0 | 0.00 | 0.00 | 0.00 | 1 | 1015.3 |
| 20260904152622 | 56 | 5 | 3.0 | 4.0 | 0.00 | 0.00 | 0.00 | 1 | 1015.3 |
| 20260904151619 | 55 | 41 | 2.0 | 4.0 | 0.00 | 0.00 | 0.00 | 1 | 1015.1 |
| 20260904150635 | 55 | 322 | 2.0 | 4.0 | 0.00 | 0.00 | 0.00 | 1 | 1014.9 |
| 20260904145631 | 54 | 346 | 2.0 | 4.0 | 0.00 | 0.00 | 0.00 | 1 | 1014.7 |
| 20260904144627 | 53 | 40 | 1.0 | 2.0 | 0.00 | 0.00 | 0.00 | 1 | 1014.8 |
| 20260904143623 | 53 | 359 | 3.0 | 4.0 | 0.00 | 0.00 | 0.00 | 1 | 1014.6 |
| 20260904142640 | 54 | 341 | 2.0 | 3.0 | 0.00 | 0.00 | 0.00 | 1 | 1014.5 |
| 20260904141716 | 53 | 212 | 1.0 | 2.0 | 0.00 | 0.00 | 0.00 | 1 | 1014.4 |
| 20260904140632 | 53 | 279 | 2.0 | 2.0 | 0.00 | 0.00 | 0.00 | 1 | 1014.2 |
| 20260904135628 | 52 | 311 | 2.0 | 2.0 | 0.00 | 0.00 | 0.00 | 1 | 1013.9 |
| 20260904134624 | 51 | 310 | 1.0 | 2.0 | 0.00 | 0.00 | 0.00 | 1 | 1013.8 |
| 20260904133620 | 51 | 283 | 1.0 | 2.0 | 0.00 | 0.00 | 0.00 | 1 | 1013.7 |
| 20260904132617 | 51 | 253 | 1.0 | 2.0 | 0.00 | 0.00 | 0.00 | 1 | 1013.5 |
| 20260904131634 | 51 | 316 | 3.0 | 4.0 | 0.00 | 0.00 | 0.00 | 1 | 1013.5 |
| 20260904130629 | 51 | 292 | 3.0 | 4.0 | 0.00 | 0.00 | 0.00 | 1 | 1013.5 |
| 20260904125624 | 52 | 270 | 2.0 | 3.0 | 0.00 | 0.00 | 0.00 | 1 | 1013.4 |
| 20260904124701 | 52 | 198 | 2.0 | 3.0 | 0.00 | 0.00 | 0.00 | 1 | 1013.4 |
| 20260904123616 | 51 | 251 | 2.0 | 3.0 | 0.00 | 0.00 | 0.00 | 1 | 1013.4 |
| 20260904122633 | 53 | 190 | 4.0 | 5.0 | 0.00 | 0.00 | 0.00 | 1 | 1013.3 |
| 20260904121709 | 52 | 297 | 1.0 | 3.0 | 0.00 | 0.00 | 0.00 | 1 | 1013.2 |
| 20260904120625 | 53 | 39 | 1.0 | 2.0 | 0.00 | 0.00 | 0.00 | 1 | 1013.1 |
| 20260904115622 | 52 | 181 | 1.0 | 2.0 | 0.00 | 0.00 | 0.00 | 1 | 1013.0 |
| 20260904114618 | 51 | 204 | 4.0 | 6.0 | 0.00 | 0.00 | 0.00 | 1 | 1013.0 |
| 20260904113635 | 51 | 281 | 2.0 | 3.0 | 0.00 | 0.00 | 0.00 | 1 | 1012.7 |
| 20260904112631 | 51 | 351 | 2.0 | 4.0 | 0.00 | 0.00 | 0.00 | 1 | 1012.8 |
| 20260904111627 | 50 | 272 | 1.0 | 1.0 | 0.00 | 0.00 | 0.00 | 1 | 1012.8 |
| 20260904110623 | 50 | 327 | 0.0 | 2.0 | 0.00 | 0.00 | 0.00 | 1 | 1012.7 |
| 20260904105632 | 52 | 316 | 3.0 | 4.0 | 0.00 | 0.00 | 0.00 | 1 | 1012.6 |
| 20260904104628 | 50 | 0.0 | 1.0 | 0.00 | 0.00 | 0.00 | 1 | 1012.5 | |
| 20260904103624 | 51 | 293 | 3.0 | 3.0 | 0.00 | 0.00 | 0.00 | 1 | 1012.2 |
| 20260904102620 | 50 | 237 | 2.0 | 3.0 | 0.00 | 0.00 | 0.00 | 1 | 1012.1 |
| 20260904101616 | 51 | 239 | 2.0 | 4.0 | 0.00 | 0.00 | 0.00 | 1 | 1012.0 |
| 20260904100633 | 51 | 274 | 1.0 | 2.0 | 0.00 | 0.00 | 0.00 | 1 | 1011.8 |
| 20260904095629 | 52 | 0.0 | 1.0 | 0.00 | 0.00 | 0.00 | 1 | 1011.8 | |
| 20260904094625 | 52 | 291 | 2.0 | 2.0 | 0.00 | 0.00 | 0.00 | 1 | 1011.8 |
| 20260904093621 | 53 | 0.0 | 0.0 | 0.00 | 0.00 | 0.00 | 1 | 1011.6 | |
| 20260904092617 | 53 | 214 | 1.0 | 2.0 | 0.00 | 0.00 | 0.00 | 1 | 1011.5 |
| 20260904091633 | 53 | 0.0 | 0.0 | 0.00 | 0.00 | 0.00 | 1 | 1011.6 | |
| 20260904090629 | 53 | 244 | 1.0 | 1.0 | 0.00 | 0.00 | 0.00 | 1 | 1011.4 |
| 20260904085625 | 52 | 332 | 2.0 | 3.0 | 0.00 | 0.00 | 0.00 | 1 | 1011.6 |
| 20260904084641 | 54 | 333 | 1.0 | 2.0 | 0.00 | 0.00 | 0.00 | 1 | 1011.6 |
| 20260904083617 | 54 | 300 | 2.0 | 2.0 | 0.00 | 0.00 | 0.00 | 1 | 1011.6 |
| 20260904082633 | 56 | 0.0 | 1.0 | 0.00 | 0.00 | 0.00 | 1 | 1011.4 | |
| 20260904081629 | 56 | 92 | 0.0 | 1.0 | 0.00 | 0.00 | 0.00 | 1 | 1011.5 |
| 20260904080625 | 56 | 220 | 0.0 | 1.0 | 0.00 | 0.00 | 0.00 | 1 | 1011.5 |
| 20260904075621 | 57 | 174 | 3.0 | 5.0 | 0.00 | 0.00 | 0.00 | 1 | 1011.5 |
| 20260904074617 | 57 | 0.0 | 3.0 | 0.00 | 0.00 | 0.00 | 1 | 1011.6 | |
| 20260904073633 | 57 | 0.0 | 1.0 | 0.00 | 0.00 | 0.00 | 1 | 1011.6 | |
| 20260904072629 | 57 | 229 | 2.0 | 2.0 | 0.00 | 0.00 | 0.00 | 1 | 1011.7 |
| 20260904071626 | 58 | 3 | 2.0 | 2.0 | 0.00 | 0.00 | 0.00 | 1 | 1011.7 |
| 20260904070641 | 60 | 189 | 2.0 | 3.0 | 0.00 | 0.00 | 0.00 | 1 | 1011.6 |
| 20260904065617 | 60 | 175 | 3.0 | 5.0 | 0.00 | 0.00 | 0.00 | 1 | 1011.5 |
| 20260904064634 | 60 | 187 | 4.0 | 6.0 | 0.00 | 0.00 | 0.00 | 1 | 1011.5 |
| 20260904063630 | 60 | 167 | 7.0 | 13.0 | 0.00 | 0.00 | 0.00 | 1 | 1011.2 |
| 20260904062626 | 60 | 175 | 7.0 | 9.0 | 0.00 | 0.00 | 0.00 | 1 | 1011.3 |
| 20260904061622 | 60 | 179 | 5.0 | 6.0 | 0.00 | 0.00 | 0.00 | 1 | 1011.4 |
| 20260904060619 | 59 | 317 | 2.0 | 3.0 | 0.00 | 0.01 | 0.00 | 1 | 1011.4 |
| 20260904055635 | 59 | 295 | 2.0 | 2.0 | 0.00 | 0.01 | 0.00 | 1 | 1011.2 |
| 20260904054631 | 59 | 340 | 2.0 | 2.0 | 0.00 | 0.01 | 0.00 | 1 | 1011.2 |
| 20260904053627 | 60 | 189 | 2.0 | 3.0 | 0.00 | 0.01 | 0.00 | 1 | 1011.1 |
| 20260904052623 | 60 | 245 | 1.0 | 2.0 | 0.00 | 0.01 | 0.00 | 1 | 1011.1 |
| 20260904051619 | 59 | 193 | 2.0 | 3.0 | 0.00 | 0.01 | 0.00 | 1 | 1011.1 |
| 20260904050636 | 60 | 178 | 1.0 | 2.0 | 0.00 | 0.01 | 0.00 | 1 | 1011.0 |
| 20260904045652 | 60 | 182 | 1.0 | 4.0 | 0.00 | 0.01 | 0.00 | 1 | 1011.1 |
| 20260904044628 | 61 | 153 | 3.0 | 4.0 | 0.00 | 0.01 | 0.00 | 1 | 1010.9 |
| 20260904043624 | 62 | 183 | 3.0 | 4.0 | 0.00 | 0.01 | 0.00 | 1 | 1011.0 |
| 20260904042640 | 63 | 167 | 2.0 | 3.0 | 0.00 | 0.01 | 0.00 | 1 | 1011.0 |
| 20260904041617 | 64 | 172 | 3.0 | 6.0 | 0.00 | 0.02 | 0.00 | 1 | 1010.8 |
| 20260904040633 | 63 | 144 | 1.0 | 3.0 | 0.00 | 0.02 | 0.00 | 1 | 1010.7 |
| 20260904035629 | 64 | 162 | 3.0 | 8.0 | 0.00 | 0.02 | 0.00 | 1 | 1010.5 |
| 20260904034625 | 63 | 161 | 5.0 | 8.0 | 0.00 | 0.02 | 0.00 | 1 | 1010.4 |
| 20260904033641 | 64 | 181 | 4.0 | 5.0 | 0.00 | 0.02 | 0.00 | 1 | 1010.6 |
| 20260904032617 | 64 | 188 | 5.0 | 6.0 | 0.00 | 0.02 | 0.00 | 1 | 1010.4 |
| 20260904031633 | 63 | 166 | 2.0 | 3.0 | 0.00 | 0.02 | 0.00 | 1 | 1010.4 |
| 20260904030629 | 64 | 177 | 2.0 | 3.0 | 0.00 | 0.02 | 0.00 | 1 | 1010.2 |
| 20260904025625 | 65 | 183 | 3.0 | 4.0 | 0.00 | 0.02 | 0.00 | 1 | 1010.2 |
| 20260904024621 | 64 | 186 | 1.0 | 2.0 | 0.00 | 0.02 | 0.00 | 1 | 1010.1 |
| 20260904023618 | 64 | 177 | 2.0 | 3.0 | 0.00 | 0.02 | 0.00 | 1 | 1009.9 |
| 20260904022654 | 64 | 189 | 3.0 | 4.0 | 0.00 | 0.02 | 0.00 | 1 | 1009.8 |
| 20260904021629 | 64 | 164 | 1.0 | 2.0 | 0.00 | 0.02 | 0.00 | 1 | 1010.0 |
| 20260904020625 | 64 | 186 | 2.0 | 3.0 | 0.00 | 0.02 | 0.00 | 1 | 1010.0 |
| 20260904015621 | 65 | 118 | 1.0 | 2.0 | 0.00 | 0.02 | 0.00 | 1 | 1010.1 |
| 20260904014617 | 65 | 108 | 1.0 | 3.0 | 0.00 | 0.02 | 0.00 | 1 | 1010.1 |
| 20260904013653 | 65 | 178 | 3.0 | 4.0 | 0.00 | 0.02 | 0.00 | 1 | 1010.3 |
| 20260904012630 | 65 | 181 | 1.0 | 3.0 | 0.00 | 0.02 | 0.00 | 1 | 1010.3 |
| 20260904011625 | 65 | 204 | 3.0 | 4.0 | 0.00 | 0.02 | 0.00 | 1 | 1010.3 |
| 20260904010622 | 65 | 207 | 4.0 | 6.0 | 0.00 | 0.02 | 0.00 | 1 | 1010.2 |
| 20260904005618 | 66 | 180 | 3.0 | 4.0 | 0.00 | 0.02 | 0.00 | 1 | 1010.2 |
| 20260904004634 | 66 | 222 | 5.0 | 5.0 | 0.00 | 0.02 | 0.00 | 1 | 1010.2 |
| 20260904003630 | 66 | 169 | 4.0 | 4.0 | 0.00 | 0.02 | 0.00 | 1 | 1010.4 |
| 20260904002627 | 66 | 170 | 4.0 | 5.0 | 0.00 | 0.02 | 0.00 | 1 | 1010.4 |
| 20260904001622 | 66 | 198 | 4.0 | 4.0 | 0.00 | 0.02 | 0.00 | 1 | 1010.7 |
| 20260904000619 | 66 | 174 | 6.0 | 8.0 | 0.00 | 0.02 | 0.00 | 1 | 1010.7 |
| 20260903235655 | 66 | 203 | 3.0 | 4.0 | 0.00 | 0.02 | 0.00 | 1 | 1010.8 |
| 20260903234651 | 66 | 192 | 3.0 | 4.0 | 0.00 | 0.02 | 0.00 | 1 | 1010.7 |
| 20260903233626 | 66 | 194 | 5.0 | 9.0 | 0.00 | 0.02 | 0.00 | 1 | 1010.7 |
| 20260903232623 | 67 | 185 | 6.0 | 9.0 | 0.00 | 0.02 | 0.00 | 1 | 1010.7 |
| 20260903231639 | 68 | 214 | 4.0 | 5.0 | 0.00 | 0.02 | 0.00 | 1 | 1010.9 |
| 20260903230635 | 68 | 184 | 5.0 | 8.0 | 0.00 | 0.02 | 0.00 | 1 | 1010.9 |
| 20260903225631 | 68 | 194 | 3.0 | 5.0 | 0.00 | 0.02 | 0.00 | 1 | 1011.0 |
| 20260903224707 | 68 | 172 | 3.0 | 5.0 | 0.00 | 0.02 | 0.00 | 1 | 1011.2 |
| 20260903223623 | 68 | 200 | 4.0 | 8.0 | 0.00 | 0.02 | 0.00 | 1 | 1011.2 |
| 20260903222620 | 67 | 230 | 2.0 | 4.0 | 0.00 | 0.02 | 0.00 | 1 | 1011.4 |
| 20260903221656 | 66 | 176 | 6.0 | 9.0 | 0.00 | 0.02 | 0.00 | 1 | 1011.5 |
| 20260903220652 | 67 | 177 | 6.0 | 7.0 | 0.00 | 0.02 | 0.00 | 1 | 1011.4 |
| 20260903215628 | 66 | 215 | 3.0 | 5.0 | 0.00 | 0.02 | 0.00 | 1 | 1011.4 |
| 20260903214624 | 67 | 213 | 3.0 | 8.0 | 0.00 | 0.02 | 0.00 | 1 | 1011.6 |
| 20260903213620 | 66 | 274 | 4.0 | 7.0 | 0.00 | 0.02 | 0.00 | 1 | 1011.6 |
| 20260903212621 | 66 | 208 | 6.0 | 11.0 | 0.00 | 0.02 | 0.00 | 1 | 1012.0 |
| 20260903211652 | 66 | 199 | 4.0 | 6.0 | 0.00 | 0.02 | 0.00 | 1 | 1012.0 |
| 20260903210628 | 66 | 237 | 7.0 | 11.0 | 0.00 | 0.02 | 0.00 | 1 | 1011.7 |